NOAA 16 DEB, 41495

Orbit data source: Space-Track

NOAA 16 DEB, 41495 is space debris in SSO originally from a launch on Thu, 21 Sep 2000 UTC launched from the Air Force Western Test Range (AFWTR). Debris objects in space refer to the collection of defunct objects orbiting the Earth. Examples of debris include non-operational satellites, rocket bodies, and fragments generated from explosions, collisions, or faulty payload assembly.

Loading next visibility...
Identifier
41495, 2000-055LT
Orbit
SSO
Country
Flag of USUS
Related business
Manufacturer
Unknown
Mission
Spacecraft
Bus & Motor
Unknown
Mass
Unknown
Launch date (UTC)
2000-09-21 (25 years ago)
Launch vehicle
Unknown
Launch site
Air Force Western Test Range (AFWTR)
Object type
Payload
Rocket body
Debris
Shape & HBR
Unknown shape, 0.1 m
Radar Cross Section
Small (<0.1 m²)

Expand to show TLE details & history
Last TLE update: 3 days ago

TLE from 3 days ago
0 NOAA 16 DEB
1 41495U 00055LT  25290.97229838  .00004399  00000-0  22622-2 0  9990
2 41495  98.6796 299.8803 0036336 216.0892 143.7829 14.15408855493458
Epoch: 2025-10-17T23:20Z
TLE epoch observation values (Epoch: 2025-10-17T23:20:06.580Z)
Latitude
0.00002°
Longitude
-76.85712°
Altitude
865.031 km
Speed
7.409 km/s
True Right ascension
19h 59m 31s
True Declination
0° 00' 00"
Sunlit
Object was in daylight at epoch
Visualization orbit readout
Latitude
Unknown
Longitude
Unknown
Altitude
Unknown
Speed
Unknown
Apparent Right ascension
Unknown
Apparent Declination
Unknown
Sunlit
N/A
Visualization observer readout
Local Sidereal Time
00:12:06
Azimuth
Unknown
Elevation
Unknown
Doppler factor
Unknown
Orbital elements
Apogee altitude
864.306 km
Perigee altitude
811.864 km
Semi-major axis
7,216.222 km
Eccentricity
0.00363
Inclination
98.6796°
RAAN
299.8803°
Arg. of periapsis
216.0892°
True anomaly
144.02802°
Mean anomaly
143.7829°
Eccentric anomaly
143.90555°
Mean motion
3.54061 °/min
Orbital period
101.68 mins
BSTAR
0.0022622
Loading maneuver chart data...
Computing Atmospheric mass density...

Documentation

Showing up to 5 results
|